Tracking 19575 objects as of 20-Feb-2019
HD Live streaming from Space Station
objects crossing your sky now

COSMOS 1818 COOLANT

Track COSMOS 1818 COOLANT now!
10-day predictions


NORAD ID: 36939
Int'l Code: 1987-011T
Perigee: 768.6 km
Apogee: 800.4 km
Inclination: 65.0 °
Period: 100.4 minutes
Semi major axis: 7155 km
RCS: 0.0022 m2 (small)
Launch date: February 1, 1987
Source: Commonwealth of Independent States (former USSR) (CIS)
Launch site: TYURATAM MISSILE AND SPACE COMPLEX (TTMTR)

Note: This is SATELLITE DEBRIS
aabbcc
Your satellite tracking list
Your tracking list is empty




NASA's NSSDC Master Catalog

Two Line Element Set (TLE):
1 36939U 87011T   19034.83440867  .00000019  00000-0  42354-4 0  9996
2 36939  65.0152 197.3372 0022196 262.9092  96.9469 14.34312750517043
Source of the keplerian elements: AFSPC